Flag for Germany Weather past 2 weeks in Ganderkesee, Lower Saxony, Germany

Now
39 °F

Clear.


Feels Like: 35 °F
Forecast: 39 / 55 °F
Wind: 6 mph from Northwest

Location: Bremen Airport

Current Time: Apr 19, 2015 at 1:32:43 AM

Latest Report: Apr 19, 2015 at 12:50 AM


Visibility: 10 mi

Pressure: 30.24 "Hg

Humidity: 87%

Dew point: 36 °F

Location of GanderkeseeLocation

Historic Weather in Ganderkesee — Graph

°F

Ganderkesee temperature yesterday

Maximum temperature yesterday: 57 °F (at 3:20 PM)
Minimum temperature yesterday: 39 °F (at 11:20 PM)
Average temperature yesterday: 48 °F

Past Weeks' High & Low Weather Summary

 TemperatureHumidityPressure
High72 °F (Apr 15, 2:50 PM)100% (Apr 4, 4:20 AM)30.57 "Hg (Apr 4, 4:20 AM)
Low27 °F (Apr 5, 5:50 AM)33% (Apr 6, 5:20 PM)29.89 "Hg (Apr 15, 3:20 PM)
Average47 °F73%30.23 "Hg
* Reported Apr 4 12:20 AM — Apr 19 12:20 AM, Ganderkesee, Weather by CustomWeather, © 2015

Note: Actual official high and low records may vary slightly from our data, if they occured in-between our weather recording intervals... More about our weather records

Advertising

Ganderkesee weather history for previous 24 hours

 ConditionsComfort  
Time TempWeatherWind HumidityBarometerVisibility
12:20 AM
Sun, Apr 19
39 °FClear.8 mph93%30.27 "Hg10 mi
11:50 PM
Sat, Apr 18
39 °FClear.7 mph93%30.27 "Hg10 mi
11:20 PM39 °FClear.7 mph93%30.27 "Hg10 mi
10:50 PM43 °FClear.8 mph81%30.27 "Hg10 mi
10:20 PM45 °FClear.10 mph81%30.27 "Hg10 mi
9:50 PM45 °FClear.14 mph81%30.27 "Hg10 mi
9:20 PM45 °FSunny.13 mph81%30.27 "Hg10 mi
8:50 PM46 °FSunny.9 mph76%30.27 "Hg10 mi
8:20 PM48 °FSunny.12 mph71%30.27 "Hg10 mi
7:50 PM50 °FPartly sunny.12 mph54%30.27 "HgN/A
7:20 PM52 °FPartly sunny.12 mph50%30.27 "HgN/A
6:50 PM54 °FPartly sunny.14 mph47%30.27 "HgN/A
6:20 PM54 °FPartly sunny.14 mph47%30.27 "HgN/A
5:50 PM55 °FPartly sunny.9 mph44%30.27 "HgN/A
5:20 PM55 °FScattered clouds.10 mph41%30.27 "HgN/A
4:50 PM55 °FPassing clouds.10 mph47%30.30 "HgN/A
4:20 PM55 °FPassing clouds.12 mph44%30.30 "HgN/A
3:50 PM55 °FPassing clouds.9 mph41%30.30 "HgN/A
3:20 PM57 °FSunny.5 mph36%30.30 "Hg10 mi
2:50 PM55 °FPassing clouds.12 mph33%30.33 "HgN/A
2:20 PM55 °FPassing clouds.8 mph38%30.33 "HgN/A
1:50 PM55 °FPassing clouds.7 mph41%30.33 "HgN/A
1:20 PM54 °FPassing clouds.6 mph38%30.33 "HgN/A
12:50 PM54 °FPassing clouds.12 mph38%30.33 "HgN/A
12:20 PM54 °FPassing clouds.7 mph41%30.36 "HgN/A
11:50 AM52 °FPassing clouds.10 mph44%30.36 "HgN/A
11:20 AM52 °FPassing clouds.8 mph54%30.36 "HgN/A
10:50 AM50 °FPassing clouds.8 mph54%30.36 "HgN/A
10:20 AM48 °FPassing clouds.8 mph62%30.36 "HgN/A
9:50 AM48 °FPassing clouds.7 mph66%30.33 "HgN/A
9:20 AM46 °FPassing clouds.8 mph71%30.33 "HgN/A
8:50 AM45 °FPassing clouds.9 mph76%30.33 "HgN/A
8:20 AM45 °FSunny.9 mph71%30.33 "Hg10 mi
7:50 AM43 °FSunny.8 mph76%30.33 "Hg10 mi
7:20 AM43 °FSunny.8 mph71%30.30 "Hg10 mi
6:50 AM41 °FClear.8 mph76%30.30 "Hg10 mi
6:20 AM41 °FClear.9 mph76%30.30 "Hg10 mi
5:50 AM41 °FClear.9 mph76%30.30 "Hg10 mi
5:20 AM43 °FClear.9 mph71%30.27 "Hg10 mi
4:50 AM43 °FClear.7 mph71%30.27 "Hg10 mi
4:20 AM43 °FClear.7 mph71%30.27 "Hg10 mi
3:50 AM43 °FClear.7 mph71%30.27 "Hg10 mi
3:20 AM43 °FClear.6 mph71%30.27 "Hg10 mi
2:50 AM43 °FClear.7 mph71%30.27 "Hg10 mi
2:20 AM43 °FClear.5 mph76%30.27 "Hg10 mi
1:50 AM43 °FClear.8 mph76%30.24 "Hg10 mi
1:20 AM45 °FClear.8 mph76%30.24 "Hg10 mi
Weather by CustomWeather, © 2015

See weather overviewHow to use our weather pages